sat.trackr.live / text

‹ back to catalog

STARLINK-4274

NORAD 52865 · 2022-062AM

PAYLOAD ACTIVE UNKNOWN

§ Identity

Operator
Country
US
Launch date
2022-06-17
Launch site
AFETR
Launch vehicle
Mass (kg)
RCS (m²)

Purposes: comms

External: N2YO · Heavens-Above · Gunter

§ Orbital elements

Epoch: 2026-05-24T23:08:01.595040Z

Period
95.44 min
Inclination
53.2141°
Eccentricity
0.0001400
Mean motion
15.08842907 rev/d
Perigee alt
538.8 km
Apogee alt
540.7 km
Semi-major
6,917.9 km
B*
5.7486e-5
RAAN
41.7115°
Arg perigee
83.2220°
Mean anomaly
276.8931°
Rev number
21,744

§ Raw data

STARLINK-42741 52865U 22062AM  26144.96390735  .00000627  00000+0  57486-4 0  99952 52865  53.2141  41.7115 0001400  83.2220 276.8931 15.08842907217443

JSON: /api/v1/satellites/52865 · /tle

For live sub-satellite position, see the globe view (requires WebGL).

§ Visibility from observer

Set your observer location to see the next 7 days of passes ≥ 10°. The values pass through the URL so the page stays shareable.

No JS? Fill the form by hand. The geolocation button needs JavaScript.